Weather History for Watertown, WI

Change the Weather History Date:

Monday, October 7, 2013

  Actual Average Record
Temperature  
Mean Temperature 54 °F -  
Max Temperature 65 °F 63 °F 86 °F (1939)
Min Temperature 41 °F 40 °F 23 °F (2001)
Degree Days  
Heating Degree Days 12    
Growing Degree Days 4 (Base 50)    
Moisture  
Dew Point 44 °F    
Average Humidity 78    
Maximum Humidity 99    
Minimum Humidity 42    
Precipitation  
Precipitation 0.02 in - - ()
Sea Level Pressure  
Sea Level Pressure 29.89 in    
Wind  
Wind Speed 6 mph (West)    
Max Wind Speed 13 mph    
Max Gust Speed 21 mph    
Visibility 10 miles    
Events Rain    
Averages and records for this station are not official NWS values.
T = Trace of Precipitation, MM = Missing Value Source: NWS Daily Summary

Daily Weather History Graph

Daily Weather History Graph

Search for Another Location

Airport:

Trip Planner

Search our weather history database for the weather conditions in past years. The results will help you decide how hot, cold, wet, or windy it might be!

Date:

Astronomy

Oct. 07, 2013 Rise Set
Actual Time 6:59 AM CDT 6:25 PM CDT
Civil Twilight 6:30 AM CDT 6:53 PM CDT
Nautical Twilight 5:58 AM CDT 7:26 PM CDT
Astronomical Twilight 5:24 AM CDT 7:59 PM CDT
Moon 9:54 AM CDT (10/7) 8:04 PM CDT (10/7)
Length of Visible Light 12h 22m
Length of Day
11h 25m
Waxing Crescent, 9% of the Moon is Illuminated
Oct 7
Waxing Crescent
Oct 11
First Quarter
Oct 18
Full
Oct 26
Last Quarter
Nov 3
New

Hourly Weather History & Observations

Time (CDT) Temp. Windchill Dew Point Humidity Pressure Visibility Wind Dir Wind Speed Gust Speed Precip Events Conditions
12:15 AM 45.1 °F 43.7 °F 44.1 °F 96% 29.71 in 10.0 mi SW 3.5 mph - N/A   Overcast
12:35 AM 45.1 °F 42.0 °F 44.1 °F 96% 29.71 in 10.0 mi SSW 5.8 mph - N/A   Overcast
12:55 AM 45.5 °F 42.5 °F 44.1 °F 95% 29.72 in 10.0 mi SW 5.8 mph - N/A   Overcast
1:15 AM 45.5 °F 44.2 °F 44.1 °F 95% 29.73 in 10.0 mi WSW 3.5 mph - N/A   Overcast
1:35 AM 45.9 °F 43.6 °F 44.1 °F 93% 29.73 in 10.0 mi WSW 4.6 mph - N/A   Overcast
1:55 AM 45.7 °F 42.0 °F 44.1 °F 94% 29.73 in 10.0 mi WSW 6.9 mph - N/A   Overcast
2:15 AM 45.7 °F 42.7 °F 44.4 °F 95% 29.73 in 10.0 mi WSW 5.8 mph - N/A   Overcast
2:55 AM 44.6 °F 42.2 °F 43.0 °F 94% 29.72 in 10.0 mi SW 4.6 mph - N/A   Mostly Cloudy
3:15 AM 44.8 °F 41.0 °F 43.2 °F 94% 29.73 in 10.0 mi WSW 6.9 mph - N/A   Mostly Cloudy
3:35 AM 45.0 °F 41.8 °F 43.3 °F 94% 29.72 in 10.0 mi WSW 5.8 mph - N/A   Overcast
3:55 AM 45.1 °F 41.4 °F 43.5 °F 94% 29.73 in 10.0 mi WSW 6.9 mph - N/A Rain Light Rain
4:15 AM 45.5 °F 42.5 °F 44.1 °F 95% 29.74 in 10.0 mi West 5.8 mph - N/A Rain Light Rain
4:35 AM 45.5 °F 43.2 °F 44.6 °F 97% 29.74 in 7.0 mi WSW 4.6 mph - 0.01 in   Light Drizzle
4:55 AM 45.7 °F 42.7 °F 45.0 °F 97% 29.74 in 7.0 mi WSW 5.8 mph - 0.02 in Rain Light Rain
5:15 AM 46.0 °F 43.1 °F 45.5 °F 98% 29.75 in 5.0 mi West 5.8 mph - N/A   Overcast
5:35 AM 46.8 °F - 46.4 °F 99% 29.76 in 10.0 mi West 6.9 mph - N/A   Overcast
5:55 AM 47.3 °F - 46.8 °F 98% 29.77 in 4.0 mi West 5.8 mph - N/A   Light Drizzle
6:15 AM 48.2 °F - 46.9 °F 95% 29.78 in 10.0 mi WNW 8.1 mph - N/A   Overcast
6:35 AM 48.4 °F - 46.9 °F 95% 29.79 in 10.0 mi WNW 11.5 mph 17.3 mph N/A   Overcast
6:55 AM 48.2 °F - 45.5 °F 90% 29.80 in 10.0 mi NW 10.4 mph 16.1 mph N/A   Overcast
7:15 AM 47.5 °F - 44.2 °F 89% 29.81 in 10.0 mi NW 9.2 mph - N/A   Overcast
7:35 AM 46.9 °F - 43.9 °F 89% 29.82 in 10.0 mi WNW 12.7 mph 16.1 mph N/A   Mostly Cloudy
7:55 AM 47.3 °F - 44.1 °F 88% 29.83 in 10.0 mi WNW 9.2 mph - N/A   Clear
8:15 AM 47.3 °F - 44.4 °F 90% 29.84 in 10.0 mi WNW 10.4 mph - N/A   Scattered Clouds
8:35 AM 47.7 °F - 44.4 °F 89% 29.85 in 10.0 mi WNW 9.2 mph - N/A   Scattered Clouds
8:55 AM 48.6 °F - 44.8 °F 87% 29.86 in 10.0 mi WNW 9.2 mph - N/A   Scattered Clouds
9:15 AM 49.3 °F - 44.6 °F 84% 29.87 in 10.0 mi WNW 9.2 mph - N/A   Scattered Clouds
9:35 AM 50.9 °F - 45.3 °F 81% 29.87 in 10.0 mi WNW 8.1 mph - N/A   Scattered Clouds
9:55 AM 51.8 °F - 45.7 °F 80% 29.88 in 10.0 mi West 8.1 mph - N/A   Scattered Clouds
10:15 AM 52.5 °F - 45.9 °F 78% 29.89 in 10.0 mi West 11.5 mph 18.4 mph N/A   Mostly Cloudy
10:35 AM 52.0 °F - 45.7 °F 79% 29.90 in 10.0 mi WNW 8.1 mph - N/A   Mostly Cloudy
10:55 AM 52.2 °F - 45.0 °F 76% 29.91 in 10.0 mi WNW 10.4 mph - N/A   Mostly Cloudy
11:15 AM 53.2 °F - 45.5 °F 75% 29.92 in 10.0 mi WNW 11.5 mph - N/A   Scattered Clouds
11:35 AM 55.0 °F - 46.2 °F 72% 29.92 in 10.0 mi WSW 8.1 mph - N/A   Scattered Clouds
11:55 AM 56.5 °F - 46.2 °F 68% 29.92 in 10.0 mi WSW 9.2 mph - N/A   Clear
12:15 PM 57.9 °F - 45.1 °F 62% 29.92 in 10.0 mi West 10.4 mph - N/A   Clear
12:35 PM 58.8 °F - 45.5 °F 61% 29.93 in 10.0 mi West 8.1 mph - N/A   Scattered Clouds
12:55 PM 59.7 °F - 45.0 °F 58% 29.92 in 10.0 mi West 10.4 mph 18.4 mph N/A   Scattered Clouds
1:15 PM 60.3 °F - 44.4 °F 56% 29.92 in 10.0 mi West 9.2 mph 18.4 mph N/A   Scattered Clouds
1:35 PM 60.8 °F - 44.6 °F 55% 29.92 in 10.0 mi West 10.4 mph 20.7 mph N/A   Scattered Clouds
1:55 PM 63.0 °F - 46.0 °F 54% 29.91 in 10.0 mi West 5.8 mph - N/A   Mostly Cloudy
2:15 PM 63.0 °F - 42.3 °F 47% 29.92 in 10.0 mi WNW 11.5 mph 17.3 mph N/A   Mostly Cloudy
2:35 PM 64.2 °F - 42.8 °F 46% 29.92 in 10.0 mi WNW 10.4 mph 16.1 mph N/A   Scattered Clouds
2:55 PM 65.1 °F - 42.3 °F 43% 29.93 in 10.0 mi WNW 9.2 mph 18.4 mph N/A   Scattered Clouds
3:15 PM 64.8 °F - 41.2 °F 42% 29.93 in 10.0 mi WNW 11.5 mph 17.3 mph N/A   Scattered Clouds
3:35 PM 64.8 °F - 41.5 °F 43% 29.93 in 10.0 mi WNW 9.2 mph - N/A   Clear
3:55 PM 65.3 °F - 41.9 °F 42% 29.93 in 10.0 mi NW 8.1 mph - N/A   Clear
4:15 PM 65.3 °F - 42.1 °F 43% 29.94 in 10.0 mi NW 11.5 mph - N/A   Clear
4:35 PM 64.9 °F - 42.3 °F 44% 29.94 in 10.0 mi WNW 8.1 mph - N/A   Clear
4:55 PM 64.8 °F - 41.4 °F 42% 29.94 in 10.0 mi WNW 9.2 mph - N/A   Clear
5:15 PM 64.2 °F - 42.6 °F 45% 29.95 in 10.0 mi NNW 5.8 mph - N/A   Clear
5:35 PM 63.7 °F - 42.3 °F 46% 29.96 in 10.0 mi WNW 4.6 mph - N/A   Clear
5:55 PM 62.6 °F - 41.9 °F 47% 29.96 in 10.0 mi WNW 4.6 mph - N/A   Clear
6:15 PM 61.0 °F - 42.6 °F 51% 29.98 in 10.0 mi Calm Calm - N/A   Clear
6:35 PM 58.5 °F - 43.2 °F 57% 29.98 in 10.0 mi Calm Calm - N/A   Clear
6:55 PM 57.9 °F - 42.8 °F 57% 29.99 in 10.0 mi Calm Calm - N/A   Clear
7:15 PM 49.6 °F - 43.5 °F 79% 29.99 in 10.0 mi Calm Calm - N/A   Clear
7:35 PM 49.5 °F - 43.7 °F 81% 30.00 in 10.0 mi Calm Calm - N/A   Clear
7:55 PM 47.8 °F - 44.1 °F 87% 30.01 in 10.0 mi Calm Calm - N/A   Clear
8:15 PM 46.9 °F - 43.0 °F 86% 30.02 in 10.0 mi Calm Calm - N/A   Clear
8:35 PM 46.2 °F - 43.3 °F 90% 30.03 in 10.0 mi Calm Calm - N/A   Clear
8:55 PM 45.7 °F - 43.3 °F 92% 30.04 in 10.0 mi Calm Calm - N/A   Clear
9:15 PM 44.6 °F - 42.6 °F 93% 30.05 in 10.0 mi Calm Calm - N/A   Clear
9:35 PM 44.2 °F - 42.3 °F 93% 30.06 in 10.0 mi Calm Calm - N/A   Clear
9:55 PM 44.4 °F - 42.3 °F 92% 30.06 in 10.0 mi Calm Calm - N/A   Clear
10:15 PM 43.7 °F - 41.5 °F 92% 30.06 in 10.0 mi Calm Calm - N/A   Clear
10:35 PM 42.8 °F - 41.5 °F 95% 30.07 in 10.0 mi Calm Calm - N/A   Clear
10:55 PM 42.6 °F - 41.0 °F 94% 30.07 in 10.0 mi Calm Calm - N/A   Clear
11:15 PM 42.3 °F - 40.8 °F 95% 30.08 in 10.0 mi Calm Calm - N/A   Clear
11:35 PM 42.1 °F - 40.8 °F 95% 30.08 in 10.0 mi Calm Calm - N/A   Clear
11:55 PM 41.5 °F - 40.1 °F 95% 30.08 in 10.0 mi Calm Calm - N/A   Clear